This is the latest recevied weather packets stored in our database for station/object KB3AWQ. If no packets are shown the sender has not sent any weather packets the latest 10 day(s).
| Time | Temp. | Humidity | Pressure | Rain* | Wind** | Luminosity | Snow |
|---|---|---|---|---|---|---|---|
| 1788092668 | 17.78° C | 91% | 1022.2 hPa | 0 mm | - | 299 W/m² | - |
| 1788092366 | 17.22° C | 93% | 1022.2 hPa | 0 mm | - | 292 W/m² | - |
| 1788092066 | 17.22° C | 93% | 1022.2 hPa | 0 mm | - | 149 W/m² | - |
| 1788091766 | 16.67° C | 94% | 1022.1 hPa | 0 mm | - | 92 W/m² | - |
| 1788091468 | 16.67° C | 92% | 1022.1 hPa | 0 mm | - | 113 W/m² | - |
| 1788091166 | 16.67° C | 93% | 1022.1 hPa | 0 mm | - | 101 W/m² | - |
| 1788090866 | 16.67° C | 93% | 1022.1 hPa | 0 mm | - | 103 W/m² | - |
| 1788090567 | 16.67° C | 93% | 1022 hPa | 0 mm | - | 84 W/m² | - |
| 1788090266 | 16.67° C | 93% | 1022.1 hPa | 0 mm | - | 73 W/m² | - |
| 1788089966 | 16.67° C | 92% | 1022.2 hPa | 0 mm | - | 70 W/m² | - |
| 1788089667 | 16.67° C | 94% | 1022.2 hPa | 0 mm | - | 69 W/m² | - |
| 1788089366 | 16.11° C | 96% | 1022.2 hPa | 0 mm | - | 92 W/m² | - |
| 1788089067 | 15.56° C | 97% | 1022.1 hPa | 0 mm | - | 89 W/m² | - |
| 1788088766 | 15° C | 99% | 1022.1 hPa | 0 mm | - | 77 W/m² | - |
| 1788088467 | 15° C | 100% | 1022.1 hPa | 0 mm | - | 60 W/m² | - |
| 1788088166 | 15° C | 100% | 1022.1 hPa | 0 mm | - | 42 W/m² | - |
| 1788087867 | 15° C | 100% | 1022 hPa | 0 mm | - | 26 W/m² | - |
| 1788087567 | 15° C | 100% | 1022 hPa | 0 mm | - | 21 W/m² | - |
| 1788087266 | 15° C | 100% | 1021.9 hPa | 0 mm | - | 15 W/m² | - |
| 1788086966 | 15° C | 99% | 1021.8 hPa | 0 mm | - | 11 W/m² | - |
| 1788086667 | 15° C | 99% | 1021.9 hPa | 0 mm | - | 8 W/m² | - |
| 1788086366 | 15° C | 99% | 1021.9 hPa | 0 mm | - | 5 W/m² | - |
| 1788086066 | 15.56° C | 99% | 1021.9 hPa | 0 mm | - | 3 W/m² | - |
| 1788085767 | 15.56° C | 98% | 1022 hPa | 0 mm | - | 1 W/m² | - |
| 1788085466 | 15.56° C | 98% | 1022.1 hPa | 0 mm | - | 1 W/m² | - |
* Rain latest hour (hover to see other rain measurements)
** Current wind speed in m/s (hover to see current wind gust speed)